Athens, GA

7:56 PM EST on February 24, 2017 (GMT -0500)
Athens / Epps

Weather History for KAHN - February, 2014

Change the Weather History Date:

Thursday, February 6, 2014

  Actual Average Record
Temperature  
Mean Temperature 38 °F 46 °F  
Max Temperature 45 °F 56 °F 78 °F (1927)
Min Temperature 30 °F 35 °F 12 °F (1917)
Degree Days  
Heating Degree Days 27 20  
Month to date heating degree days 114 120  
Since 1 July heating degree days 2078 1877  
Moisture  
Dew Point 25 °F    
Average Humidity 59    
Maximum Humidity 72    
Minimum Humidity 45    
Precipitation  
Precipitation 0.00 in 0.16 in 1.89 in (2002)
Month to date precipitation 0.63 0.94  
Year to date precipitation 5.31 4.99  
Snow  
Snow 0.00 in 0.00 in 1.80 in (2014)
Month to date snowfall 0.0 0.2  
Since 1 July snowfall 0.0 1.7  
Snow Depth 0.00 in    
Sea Level Pressure  
Sea Level Pressure 30.26 in    
Wind  
Wind Speed 5 mph (NW)    
Max Wind Speed 14 mph    
Max Gust Speed 18 mph    
Visibility 9 miles    
Events      
T = Trace of Precipitation, MM = Missing Value Source: NWS Daily Summary

Daily Weather History Graph

Daily Weather History Graph

Search for Another Location

Airport or City:

Trip Planner

Search our weather history database for the weather conditions in past years. The results will help you decide how hot, cold, wet, or windy it might be!

Date:

Astronomy

Feb. 06, 2014 Rise Set
Actual Time 7:26 AM EST 6:08 PM EST
Civil Twilight 7:00 AM EST 6:34 PM EST
Nautical Twilight 6:30 AM EST 7:04 PM EST
Astronomical Twilight 6:01 AM EST 7:33 PM EST
Moon 11:41 AM EST (2/6) 12:41 AM EST (2/6)
Length of Visible Light 11h 34m
Length of Day
10h 42m
Waxing Crescent, 49% of the Moon is Illuminated
Feb 6
Waxing Crescent
Feb 6
First Quarter
Feb 14
Full
Feb 22
Last Quarter
Mar 1
New

Hourly Weather History & Observations

Time (EST) Temp. Windchill Dew Point Humidity Pressure Visibility Wind Dir Wind Speed Gust Speed Precip Events Conditions
12:51 AM 34.0 °F 26.6 °F 25.0 °F 70% 30.17 in 10.0 mi NW 9.2 mph - N/A   Clear
1:51 AM 33.1 °F 25.5 °F 24.1 °F 70% 30.18 in 9.0 mi NW 9.2 mph - N/A   Clear
2:51 AM 32.0 °F 24.8 °F 23.0 °F 69% 30.18 in 9.0 mi WNW 8.1 mph - N/A   Clear
3:51 AM 30.9 °F 24.3 °F 23.0 °F 72% 30.19 in 9.0 mi WNW 6.9 mph - N/A   Clear
4:51 AM 30.0 °F 24.1 °F 21.9 °F 72% 30.22 in 9.0 mi WNW 5.8 mph - N/A   Clear
5:51 AM 30.0 °F 24.1 °F 21.9 °F 72% 30.24 in 9.0 mi WNW 5.8 mph - N/A   Clear
6:51 AM 30.0 °F 24.1 °F 21.9 °F 72% 30.27 in 9.0 mi NW 5.8 mph - N/A   Clear
7:51 AM 30.9 °F 25.2 °F 21.9 °F 69% 30.29 in 7.0 mi NW 5.8 mph - N/A   Clear
8:51 AM 32.0 °F 24.8 °F 23.0 °F 69% 30.32 in 7.0 mi NW 8.1 mph - N/A   Clear
9:51 AM 37.0 °F 34.5 °F 25.0 °F 62% 30.32 in 7.0 mi Variable 3.5 mph - N/A   Clear
10:51 AM 37.9 °F 33.5 °F 24.1 °F 57% 30.34 in 8.0 mi ENE 5.8 mph - N/A   Clear
11:51 AM 39.9 °F 37.8 °F 25.0 °F 55% 30.33 in 8.0 mi SE 3.5 mph - N/A   Clear
12:51 PM 44.1 °F 40.1 °F 26.1 °F 49% 30.28 in 9.0 mi East 6.9 mph - N/A   Clear
1:51 PM 45.0 °F 43.5 °F 26.1 °F 48% 30.25 in 9.0 mi Variable 3.5 mph - N/A   Clear
2:51 PM 44.1 °F - 25.0 °F 47% 30.23 in 9.0 mi Calm Calm - N/A   Clear
3:51 PM 45.0 °F 43.5 °F 26.1 °F 48% 30.22 in 8.0 mi East 3.5 mph - N/A   Partly Cloudy
4:51 PM 44.1 °F - 26.1 °F 49% 30.26 in 8.0 mi Calm Calm - N/A   Scattered Clouds
5:51 PM 43.0 °F - 27.0 °F 53% 30.30 in 9.0 mi Calm Calm - N/A   Clear
6:51 PM 42.1 °F - 27.0 °F 55% 30.29 in 10.0 mi Calm Calm - N/A   Clear
7:51 PM 41.0 °F 35.8 °F 26.1 °F 55% 30.29 in 9.0 mi NW 8.1 mph - N/A   Overcast
8:51 PM 39.9 °F 37.8 °F 26.1 °F 58% 30.30 in 9.0 mi SW 3.5 mph - N/A   Overcast
9:51 PM 39.0 °F 36.8 °F 26.1 °F 60% 30.30 in 9.0 mi West 3.5 mph - N/A   Overcast
10:51 PM 37.9 °F 32.7 °F 25.0 °F 60% 30.30 in 8.0 mi WNW 6.9 mph - N/A   Overcast
11:51 PM 37.9 °F - 26.1 °F 62% 30.27 in 8.0 mi Calm Calm - N/A   Overcast